Weather in Kasimovo

Russia / Saint-Petersburg and Leningrad Oblast     60°12′12″N   30°18′40″E
temp.,
°C
wind,
m/s
gust,
m/s
humid.,
%
clouds,
%
prec.,
mm/h
press.,
hPa
HPBL,
m
6 may, thu
thu600:00+2e3895100 0.1 1002287
03:00+2e3798100 0.1 1000181
06:00+3ene37100100 1.9 997284
09:00+3ene37100100 5.9 995307
12:00+3ne3899100 3.8 992467
15:00+3nnw3598100 10.4 990420
18:00+2w3798100 0.1 991378
21:00+3wsw41198100 0.1 992614
7 may, fri
fri700:00+2wsw41198100 0.1 993614
03:00+2wsw41098100 0.4 995726
06:00+2wsw3997100 0.1 996732
09:00+3wsw3796100 0.1 998500
12:00+3sw2797100 0.1 1000657
15:00+4sw3898100 0.3 1002741
18:00+5sw279452 0.2 1003558
21:00+4w119788 0.3 100410
8 may, sat
sat800:00+4sse1197100 0.0 100420
03:00+2se1197100 0.0 100411
06:00+3nne2296100 0.0 100369
09:00+5nne3592100 0.1 1002395
12:00+5n3496100 1.8 1002752
15:00+4nnw3797100 2.3 1002645
18:00+5nw3796100 1.7 1003872
21:00+4nw51193100 2.3 1004796
9 may, sun
sun900:00+3nw51390100 0.1 1004685
03:00+2wnw41388100 0.1 1006438
06:00+1wnw412885 0.0 1009361
09:00+6wnw510720 0.0 1011888
12:00+9wsw685025 0.0 10141584
15:00+9wsw594798 0.0 10161322
18:00+9sw4958100 0.0 10161536
21:00+6wsw3980100 0.0 1017283
10 may, mon
mon1000:00+3sw248689 0.0 101869
03:00+4s2587100 0.0 1019102
06:00+5sse31090100 0.4 1018640
09:00+6s41095100 0.8 1018598
12:00+8ssw31092100 0.0 1019599
15:00+14wsw387567 0.0 1019606
18:00+16ssw2772100 0.0 1019431
21:00+13ssw31086100 0.0 1019197